weather.gov     
National Weather Service

Regional Weather Roundup
NWS Homepage
This page is being discontinued on March 12, 2014.
The same data is available at this site. Please update your bookmarks.
Thank you, and we apologize for the inconvenience.
Please send an email to SR-SRH.Webmaster@noaa.gov with any concerns.


Current Version
Previous Version:    01  02  03  04  05  06  07  08  09  10  11  12  13  14  15  16  17  18  19  20  21  22  23  24  25  26  27  28  29  30  
   31  32  33  34  35  36  37  38  39  40  41  42  43  44  45  46  47  48  49  50  51  52  53  54  55  56  57  58  59  60  
[Printable]
880
ASUS43 KBIS 242020
RWRBIS

NWR BROADCAST TEXT
NATIONAL WEATHER SERVICE BISMARCK ND
300 PM CDT FRI OCT 24 2014

NOTE: "FAIR" INDICATES FEW OR NO CLOUDS BELOW 12,000 FEET WITH NO
SIGNIFICANT WEATHER AND/OR OBSTRUCTIONS TO VISIBILITY.


CITY           SKY/WX    TMP DP  RH WIND       PRES   REMARKS
WILLISTON      MOSUNNY   62  30  29 W24G32    29.92S
MINOT          SUNNY     65  27  23 W30G38    29.84R
MINOT AFB      SUNNY     65  31  28 W28G36    29.82R
BISMARCK       MOSUNNY   73  36  25 W18G24    29.89F
DICKINSON      PTSUNNY   61  35  37 W17G26    29.95S
GARRISON         N/A     66  30  26 NW25G36   29.88R
HETTINGER ARPT CLOUDY    64  33  31 W15       30.00R
JAMESTOWN      SUNNY     71  40  32 W15       29.82S
BEACH            N/A     57  28  33 NW17G24   30.01S
CARRINGTON     FAIR      68  36  30 NW26G36   29.83R
CROSBY         FAIR      59  32  36 W25G33    29.87F
HARVEY         FAIR      66  32  28 W20G33    29.83S
HAZEN          MOCLDY    64  32  29 W20G25    29.91S
LINTON         FAIR      72  41  33 NW17      29.89F
MANDAN         FAIR      68  36  30 NW22G32   29.90F
OAKES            N/A     75  41  29 W15G23    29.83S
RUGBY          FAIR      64  32  29 W31G37    29.80S
STANLEY        FAIR      63  28  27 NW28G36   29.88S
TIOGA          FAIR      59  28  31 W26G36    29.91F
$$

CITY           SKY/WX    TMP DP  RH WIND       PRES   REMARKS
GRAND FORKS    MOSUNNY   73  41  31 W17G25    29.72F
GRAND FORKS AF SUNNY     72  40  30 W22G28    29.73F
DEVILS LAKE    SUNNY     66  36  32 W25       29.77R
FARGO          SUNNY     77  42  28 W18       29.76F
CANDO          FAIR      66  30  26 W32G43    29.76S
CAVALIER       FAIR      72  37  28 W22G35    29.67F
GRAFTON        FAIR      70  39  32 W26G35    29.70S
GWINNER        CLEAR     79  43  27 W9        29.82F
LANGDON        FAIR      68  32  26 W38G46    29.71S
ROLLA          FAIR      64  30  27 W26G40    29.75S
WALHALLA         N/A     72  34  25 W22G33    29.67S
$$

CITY           SKY/WX    TMP DP  RH WIND       PRES   REMARKS
ABERDEEN       SUNNY     80  39  23 NW16      29.86F
MOBRIDGE       SUNNY     76  40  27 NW16      29.89S
BUFFALO          N/A     65  28  24 NW17G26   29.95S
RAPID CITY     SUNNY     70  38  31 N17G23    30.00F
GLASGOW        MOSUNNY   58  27  30 NW21G31   29.97S
SIDNEY         PTSUNNY   63  27  25 W16G29    29.98R
WOLF POINT     PTSUNNY   62  28  27 NW22G30   29.96F
GLENDIVE       PTSUNNY   61  30  31 W14       30.02S
MILES CITY     CLOUDY    60  30  32 NW15      30.03F
BAKER          CLOUDY    59  32  36 NW15      30.03F
$$

CITY           SKY/WX    TMP DP  RH WIND       PRES   REMARKS
BILLINGS       CLOUDY    56  39  53 N7        30.06S
GREAT FALLS    PTSUNNY   57  33  40 SW17G23   30.02F
REGINA         MOSUNNY   55  32  41 W23G31    29.84R
ESTEVAN        MOSUNNY   61  34  36 W21G31    29.85R
$$





U.S. Dept. of Commerce
NOAA National Weather Service
1325 East West Highway
Silver Spring, MD 20910
E-mail: w-nws.webmaster@noaa.gov
Page last modified: May 16, 2007
NATIONAL WEATHER SERVICE: for Safety, for Work, for Fun - FOR LIFE